Waarnemingen

Advertentie
Mijn weer
Grenoble/St.Geoirs, Frankrijk (7486): temperatuur & dauwpunt: 13.10.2017 05:00:00 - 19.10.2017 05:00:00 (CEST)Grenoble/St.Geoirs, Frankrijk (7486): temperatuur 5cm: 13.10.2017 05:00:00 - 19.10.2017 05:00:00 (CEST)Grenoble/St.Geoirs, Frankrijk (7486): temperatuur -20cm & temperatuur -100cm: 13.10.2017 05:00:00 - 19.10.2017 05:00:00 (CEST)Grenoble/St.Geoirs, Frankrijk (7486): windsnelheid & windstoten: 13.10.2017 05:00:00 - 19.10.2017 05:00:00 (CEST)Grenoble/St.Geoirs, Frankrijk (7486): windrichting: 13.10.2017 05:00:00 - 19.10.2017 05:00:00 (CEST)Grenoble/St.Geoirs, Frankrijk (7486): luchtdruk: 13.10.2017 05:00:00 - 19.10.2017 05:00:00 (CEST)Grenoble/St.Geoirs, Frankrijk (7486): zicht: 13.10.2017 05:00:00 - 19.10.2017 05:00:00 (CEST)Grenoble/St.Geoirs, Frankrijk (7486): Zonneschijnduur: 13.10.2017 05:00:00 - 19.10.2017 05:00:00 (CEST)Grenoble/St.Geoirs, Frankrijk (7486): neerslag: 13.10.2017 05:00:00 - 19.10.2017 05:00:00 (CEST)
Datum & Tijd tt [°C] td [°C] tt 5cm [°C] tt -20cm [°C] tt -100cm [°C] ff [km/u] ff [kn] fx [km/u] fx [kn] dd ppp [hPa] vv [km] sd [min] rr [mm]
19.10.2017 05:00:00 10,6 9,0 8,1 14,7 15,2 11 6 17 9 ONO 1014,4 10 0 0,0
19.10.2017 04:00:00 10,5 8,6 8,1 14,7 15,1 9 5 17 9 O 1014,9 9 0 0,0
19.10.2017 03:00:00 11,5 9,1 9,2 14,8 15,2 9 5 16 9 O 1014,9 14 0 0,0
19.10.2017 02:00:00 14,2 9,2 9,7 14,8 15,1 6 4 16 8 ZO 1014,6 17 0 0,0
19.10.2017 01:00:00 13,9 9,7 9,0 14,8 15,2 8 5 18 10 ZO 1014,7 18 0 0,0
19.10.2017 00:00:00 15,7 10,9 12,9 14,8 15,2 9 5 16 8 ZW 1014,4 22 0 0,0
18.10.2017 23:00:00 16,8 11,3 15,0 14,8 15,1 10 5 19 10 OZO 1014,7 22 0 0,0
18.10.2017 22:00:00 16,8 10,4 14,9 14,7 15,1 2 1 13 7 WNW 1014,8 26 0 0,0
18.10.2017 21:00:00 16,8 9,9 14,2 14,7 15,1 4 2 14 7 OZO 1014,2 27 0 0,0
18.10.2017 20:00:00 16,6 10,0 12,5 14,6 15,2 8 4 14 8 ZZO 1014,1 25 0 0,0
18.10.2017 19:00:00 17,3 9,7 13,1 14,6 15,2 6 4 13 7 ZZW 1013,8 18 3 0,0
18.10.2017 18:00:00 19,1 8,7 18,1 14,4 15,2 4 2 25 13 WZW 1013,4 17 7 0,0
18.10.2017 17:00:00 20,9 8,2 21,2 14,3 15,1 13 7 29 15 WZW 1013,1 10 15 0,0
18.10.2017 16:00:00 22,3 6,5 22,1 14,2 15,1 16 9 28 15 ZW 1013,2 29 35 0,0
18.10.2017 15:00:00 21,6 5,9 22,4 14,1 15,2 20 11 28 15 WZW 1013,8 34 42 0,0
18.10.2017 14:00:00 21,3 7,5 24,1 14,1 15,2 16 8 29 16 WZW 1014,5 27 60 0,0
18.10.2017 13:00:00 20,4 7,4 21,3 14,1 15,2 4 2 12 6 O 1015,7 26 60 0,0
18.10.2017 12:00:00 17,5 9,1 18,4 14,2 15,2 10 5 14 8 O 1016,8 20 60 0,0
18.10.2017 11:00:00 15,1 9,7 15,0 14,2 15,2 7 4 15 8 NO 1017,6 7 60 0,0
18.10.2017 10:00:00 12,4 10,3 10,8 14,3 15,2 12 6 21 11 ONO 1018,3 9 60 0,0
18.10.2017 09:00:00 9,8 8,6 6,8 14,4 15,2 12 7 21 11 O 1018,7 6 39 0,0
18.10.2017 08:00:00 8,1 7,2 3,9 14,5 15,2 12 7 17 9 O 1019,0 2,5 0 0,0
18.10.2017 07:00:00 8,5 7,3 4,8 14,5 15,2 6 3 16 9 O 1019,3 3,5 0 0,0
18.10.2017 06:00:00 8,5 7,6 2,8 14,5 15,2 9 5 12 7 O 1019,7 3,8 0 0,0
18.10.2017 05:00:00 7,5 6,1 5,7 14,6 15,2 9 5 19 10 O 1020,0 3,8 0 0,0
18.10.2017 04:00:00 12,9 11,1 12,0 14,6 15,2 13 7 23 13 ZW 1019,6 5 0 0,0
18.10.2017 03:00:00 13,5 11,2 12,3 14,7 15,2 16 8 31 17 ZW 1019,9 8 0 0,0
18.10.2017 02:00:00 13,9 11,4 12,9 14,7 15,2 17 9 31 17 ZW 1019,9 13 0 0,0
18.10.2017 01:00:00 14,2 11,2 13,0 14,7 15,2 21 11 32 17 ZW 1020,0 15 0 0,0
18.10.2017 00:00:00 14,3 10,9 12,2 14,7 15,2 13 7 21 11 ZZW 1020,3 11 0 0,0
17.10.2017 23:00:00 14,3 9,9 12,4 14,7 15,2 7 4 23 13 ZZW 1020,5 16 0 0,0
17.10.2017 22:00:00 15,6 9,9 13,1 14,7 15,2 9 5 23 12 ZW 1020,2 18 0 0,0
17.10.2017 21:00:00 15,8 9,0 11,7 14,6 15,2 6 3 22 12 ZW 1020,1 20 0 0,0
17.10.2017 20:00:00 17,0 8,9 14,9 14,6 15,2 8 4 27 14 ZW 1020,1 22 0 0,0
17.10.2017 19:00:00 18,4 9,2 16,9 14,4 15,2 16 8 27 15 ZW 1019,6 18 27 0,0
17.10.2017 18:00:00 20,5 8,5 20,1 14,3 15,2 11 6 34 18 ZW 1019,4 17 60 0,0
17.10.2017 17:00:00 21,5 8,0 23,6 14,1 15,2 19 10 30 16 ZZW 1019,6 8 60 0,0
17.10.2017 16:00:00 22,4 9,2 25,4 14,0 15,2 15 8 28 15 ZZW 1020,0 7 60 0,0
17.10.2017 15:00:00 22,4 8,5 25,2 14,0 15,2 14 7 30 16 WZW 1020,5 14 60 0,0
17.10.2017 14:00:00 22,7 8,8 25,6 13,9 15,2 9 5 21 11 WZW 1021,4 32 58 0,0
17.10.2017 13:00:00 20,7 7,0 22,2 13,9 15,2 3 2 18 10 N 1022,8 38 60 0,0
17.10.2017 12:00:00 18,7 6,5 18,6 14,0 15,2 13 7 22 12 O 1023,6 33 60 0,0
17.10.2017 11:00:00 16,0 6,4 14,2 14,1 15,2 15 8 23 12 O 1024,7 18 60 0,0
17.10.2017 10:00:00 12,9 6,7 10,1 14,2 15,2 16 9 22 12 O 1025,6 10 60 0,0
17.10.2017 09:00:00 9,3 6,4 6,3 14,3 15,2 13 7 18 10 O 1026,3 18 40 0,0
17.10.2017 08:00:00 7,8 5,4 4,0 14,3 15,2 14 7 16 9 O 1026,5 20 0 0,0
17.10.2017 07:00:00 7,1 5,2 5,5 14,4 15,2 13 7 20 11 O 1026,6 14 0 0,0
17.10.2017 06:00:00 7,6 5,2 6,0 14,5 15,2 14 7 18 10 O 1026,7 19 0 0,0
17.10.2017 05:00:00 7,3 5,8 5,7 14,6 15,2 14 7 17 9 O 1027,0 12 0 0,0
17.10.2017 04:00:00 7,9 6,5 5,5 14,7 15,2 11 6 16 9 O 1027,3 9 0 0,0
17.10.2017 03:00:00 7,4 5,9 5,6 14,8 15,2 12 7 17 9 O 1027,8 10 0 0,0
17.10.2017 02:00:00 8,5 7,3 6,0 14,8 15,2 14 7 18 10 OZO 1027,9 11 0 0,0
17.10.2017 01:00:00 9,1 7,0 6,5 14,9 15,2 14 8 18 10 O 1027,8 12 0 0,0
17.10.2017 00:00:00 8,9 6,3 6,1 15,0 15,2 13 7 16 9 O 1028,0 13 0 0,0
16.10.2017 23:00:00 9,9 6,1 6,1 15,0 15,2 6 3 15 8 O 1027,7 17 0 0,0
16.10.2017 22:00:00 10,4 6,7 7,3 14,9 15,2 7 4 11 6 O 1027,4 18 0 0,0
16.10.2017 21:00:00 14,2 7,5 8,4 14,9 15,2 6 3 12 7 O 1026,6 24 0 0,0
16.10.2017 20:00:00 16,3 6,7 10,4 14,8 15,2 3 2 14 8 N 1026,2 25 0 0,0
16.10.2017 19:00:00 18,1 7,2 12,7 14,7 15,2 3 2 15 8 W 1025,5 19 24 0,0
16.10.2017 18:00:00 21,5 8,0 20,7 14,5 15,2 16 9 24 13 ZW 1024,8 26 60 0,0
16.10.2017 17:00:00 23,0 9,4 25,6 14,4 15,2 11 6 27 15 ZZW 1024,7 10 60 0,0
16.10.2017 16:00:00 23,1 10,5 26,0 14,3 15,2 18 10 30 16 ZZW 1024,8 30 60 0,0
16.10.2017 15:00:00 23,2 10,3 25,1 14,2 15,2 10 6 27 14 ZZW 1025,4 26 60 0,0
16.10.2017 14:00:00 22,1 10,9 25,4 14,2 15,2 14 8 26 14 Z 1026,2 17 60 0,0
16.10.2017 13:00:00 21,0 11,9 21,8 14,1 15,2 13 7 32 17 ZZW 1026,9 18 60 0,0
16.10.2017 12:00:00 19,1 11,9 20,0 14,2 15,2 6 3 18 10 Z 1027,5 12 60 0,0
16.10.2017 11:00:00 16,6 11,7 16,4 14,2 15,2 5 3 13 7 O 1027,9 9 60 0,0
16.10.2017 10:00:00 13,9 9,9 11,7 14,3 15,2 10 5 15 8 O 1028,3 17 60 0,0
16.10.2017 09:00:00 10,0 8,1 6,2 14,4 15,2 11 6 14 8 O 1028,6 13 42 0,0
16.10.2017 08:00:00 7,8 6,3 6,2 14,5 15,2 12 7 15 8 O 1028,5 12 0 0,0
16.10.2017 07:00:00 8,3 6,4 6,9 14,5 15,2 10 6 19 11 O 1028,3 13 0 0,0
16.10.2017 06:00:00 10,5 8,9 7,6 14,6 15,2 13 7 20 11 O 1027,8 10 0 0,0
16.10.2017 05:00:00 9,9 8,5 8,2 14,7 15,2 12 6 18 10 O 1028,0 12 0 0,0
16.10.2017 04:00:00 10,0 9,2 7,2 14,8 15,2 13 7 16 8 O 1028,3 9 0 0,0
16.10.2017 03:00:00 9,3 8,4 7,2 14,8 15,2 9 5 14 7 O 1028,8 9 0 0,0
16.10.2017 02:00:00 8,6 6,9 7,2 14,9 15,2 11 6 14 8 O 1029,0 11 0 0,0
16.10.2017 01:00:00 9,1 7,2 7,4 14,9 15,2 8 5 14 8 O 1029,2 11 0 0,0
16.10.2017 00:00:00 11,6 9,0 8,8 14,9 15,2 8 5 15 8 OZO 1028,6 12 0 0,0
15.10.2017 23:00:00 11,1 8,3 9,2 14,9 15,2 10 5 13 7 O 1028,6 15 0 0,0
15.10.2017 22:00:00 12,4 9,6 9,4 14,8 15,2 9 5 12 7 O 1028,2 17 0 0,0
15.10.2017 21:00:00 17,4 10,5 14,1 14,8 15,2 9 5 27 15 W 1027,1 22 0 0,0
15.10.2017 20:00:00 17,9 10,5 13,7 14,7 15,2 5 3 21 11 W 1026,9 26 0 0,0
15.10.2017 19:00:00 18,9 10,2 14,4 14,5 15,2 3 2 20 11 W 1026,2 26 26 0,0
15.10.2017 18:00:00 21,6 11,0 21,4 14,4 15,2 11 6 23 12 ZW 1025,3 32 60 0,0
15.10.2017 17:00:00 23,2 12,2 25,9 14,2 15,2 11 6 20 11 ZZW 1025,0 33 60 0,0
15.10.2017 16:00:00 23,3 12,3 26,4 14,1 15,2 10 5 27 15 WZW 1025,4 31 60 0,0
15.10.2017 15:00:00 23,2 12,2 26,6 14,0 15,2 14 8 25 13 ZW 1025,7 23 60 0,0
15.10.2017 14:00:00 22,9 12,5 24,5 14,0 15,2 14 7 28 15 Z 1026,4 22 60 0,0
15.10.2017 13:00:00 21,6 12,2 22,9 13,9 15,2 13 7 33 18 WZW 1027,2 20 60 0,0
15.10.2017 12:00:00 20,3 12,3 21,6 14,0 15,2 18 10 30 16 WZW 1027,8 25 60 0,0
15.10.2017 11:00:00 18,8 12,1 17,6 14,1 15,2 2 1 12 6 ZO 1028,3 20 60 0,0
15.10.2017 10:00:00 15,2 12,1 11,9 14,1 15,2 10 5 18 10 O 1028,6 11 60 0,0
15.10.2017 09:00:00 10,5 8,9 7,2 14,2 15,2 9 5 19 10 O 1029,2 10 43 0,0
15.10.2017 08:00:00 9,0 8,1 7,3 14,3 15,2 9 5 14 8 O 1029,3 6 0 0,0
15.10.2017 07:00:00 9,8 8,1 6,9 14,4 15,2 9 5 16 8 O 1029,0 6 0 0,0
15.10.2017 06:00:00 9,2 8,1 7,2 14,4 15,2 8 4 14 8 O 1029,0 6 0 0,0
15.10.2017 05:00:00 9,2 8,4 6,6 14,5 15,2 9 5 15 8 O 1028,9 6 0 0,0
15.10.2017 04:00:00 8,4 7,3 6,9 14,6 15,2 10 6 15 8 O 1029,1 3,1 0 0,0
15.10.2017 03:00:00 8,4 7,8 6,9 14,6 15,2 11 6 15 8 O 1029,4 1,8 0 0,0
15.10.2017 02:00:00 8,7 7,9 6,0 14,7 15,2 11 6 14 7 O 1029,3 1,4 0 0,0
15.10.2017 01:00:00 9,1 8,3 7,1 14,7 15,2 10 5 13 7 O 1029,4 1,2 0 0,0
15.10.2017 00:00:00 9,6 8,4 7,5 14,7 15,2 10 6 14 8 O 1029,2 3,9 0 0,0
14.10.2017 23:00:00 10,4 9,5 7,4 14,7 15,2 7 4 11 6 O 1028,9 6 0 0,0
14.10.2017 22:00:00 10,7 9,3 8,2 14,7 15,2 7 4 11 6 O 1028,7 7 0 0,0
14.10.2017 21:00:00 12,5 10,2 7,2 14,7 15,2 5 3 9 5 O 1028,2 10 0 0,0
14.10.2017 20:00:00 13,8 10,6 8,4 14,5 15,2 8 4 9 5 ZO 1027,7 12 0 0,0
14.10.2017 19:00:00 16,8 11,5 13,7 14,4 15,2 6 4 16 8 N 1026,5 15 27 0,0
14.10.2017 18:00:00 20,9 11,5 21,0 14,2 15,2 12 6 17 9 WNW 1025,5 19 60 0,0
14.10.2017 17:00:00 23,0 12,0 26,1 14,1 15,3 7 4 13 7 WZW 1025,2 7 60 0,0
14.10.2017 16:00:00 23,3 11,0 28,5 13,9 15,3 3 2 10 5 ZZO 1025,3 6 60 0,0
14.10.2017 15:00:00 23,1 10,8 28,1 13,8 15,2 3 1 10 5 ZZO 1025,6 12 60 0,0
14.10.2017 14:00:00 21,4 10,5 25,8 13,8 15,3 3 1 8 4 N 1026,4 19 60 0,0
14.10.2017 13:00:00 19,2 8,8 22,3 13,8 15,2 2 1 9 5 W 1027,5 29 60 0,0
14.10.2017 12:00:00 17,6 7,9 17,7 13,8 15,3 3 1 14 8 O 1028,3 31 60 0,0
14.10.2017 11:00:00 15,3 7,1 15,2 13,9 15,3 11 6 18 10 O 1028,6 27 60 0,0
14.10.2017 10:00:00 12,9 7,3 11,1 14,0 15,3 14 7 17 9 OZO 1028,8 25 60 0,0
14.10.2017 09:00:00 9,4 6,7 5,0 14,1 15,3 14 8 19 10 O 1029,0 26 45 0,0
14.10.2017 08:00:00 6,5 5,0 4,2 14,2 15,3 13 7 17 9 OZO 1029,0 10 0 0,0
14.10.2017 07:00:00 6,0 4,2 4,7 14,2 15,3 15 8 18 10 O 1028,9 29 0 0,0
14.10.2017 06:00:00 7,2 5,2 5,1 14,3 15,3 14 8 19 10 O 1028,6 26 0 0,0
14.10.2017 05:00:00 7,1 5,4 5,4 14,4 15,3 15 8 17 9 O 1028,6 10 0 0,0
14.10.2017 04:00:00 7,5 5,5 5,9 14,5 15,3 15 8 18 10 O 1028,6 10 0 0,0
14.10.2017 03:00:00 8,1 5,9 6,1 14,6 15,3 15 8 17 9 O 1028,6 10 0 0,0
14.10.2017 02:00:00 7,9 5,9 5,6 14,6 15,3 14 8 17 9 O 1028,8 27 0 0,0
14.10.2017 01:00:00 8,2 6,2 6,7 14,7 15,3 13 7 16 9 O 1028,5 30 0 0,0
14.10.2017 00:00:00 8,7 6,8 6,4 14,7 15,3 11 6 13 7 O 1028,4 25 0 0,0
13.10.2017 23:00:00 9,2 7,8 6,5 14,7 15,3 13 7 14 8 O 1028,1 17 0 0,0
13.10.2017 22:00:00 9,4 7,7 6,8 14,7 15,3 9 5 13 7 O 1027,9 19 0 0,0
13.10.2017 21:00:00 10,9 8,1 7,0 14,6 15,3 10 5 11 6 OZO 1027,3 23 0 0,0
13.10.2017 20:00:00 13,8 9,8 9,1 14,5 15,3 9 5 10 6 OZO 1026,6 31 0 0,0
13.10.2017 19:00:00 17,9 9,5 12,2 14,4 15,3 5 3 9 5 ZO 1025,5 5 31 0,0
13.10.2017 18:00:00 21,7 9,9 22,5 14,2 15,3 7 4 21 11 ZO 1024,7 31 57 0,0
13.10.2017 17:00:00 23,3 8,6 23,5 14,1 15,3 6 3 11 6 OZO 1024,5 20 40 0,0
13.10.2017 16:00:00 23,8 7,0 24,8 13,9 15,3 2 1 9 5 O 1024,6 43 32 0,0
13.10.2017 15:00:00 23,1 7,2 27,5 13,9 15,3 5 3 16 9 ONO 1024,9 60 60 0,0
13.10.2017 14:00:00 22,3 8,8 25,1 13,8 15,3 12 7 21 11 O 1025,4 25 60 0,0
13.10.2017 13:00:00 20,4 8,4 22,4 13,9 15,3 13 7 23 12 O 1026,4 23 60 0,0
13.10.2017 12:00:00 18,7 9,5 19,6 13,9 15,3 16 8 24 13 O 1027,1 18 60 0,0
13.10.2017 11:00:00 16,9 9,3 15,7 14,0 15,3 16 9 24 13 O 1027,4 13 56 0,0
13.10.2017 10:00:00 13,7 9,5 11,1 14,1 15,3 16 9 21 12 O 1028,0 12 60 0,0
13.10.2017 09:00:00 9,7 8,6 3,6 14,2 15,3 12 6 14 8 O 1028,3 20 46 0,0
13.10.2017 08:00:00 5,5 4,9 1,3 14,3 15,3 9 5 13 7 O 1028,7 15 0 0,0
13.10.2017 07:00:00 4,7 3,5 1,3 14,4 15,3 6 3 9 5 OZO 1028,7 14 0 0,0
13.10.2017 06:00:00 6,4 5,7 1,0 14,5 15,3 6 3 8 5 ZO 1028,4 9 0 0,0
13.10.2017 05:00:00 6,5 5,8 1,3 14,6 15,3 6 3 8 4 O 1028,4 4,4 0 0,0

tt = temperatuur
td = dauwpunt
tt 5cm = temperatuur 5cm
tt -20cm = temperatuur -20cm
tt -100cm = temperatuur -100cm
ff = windsnelheid
fx = windstoten
dd = windrichting
ppp = luchtdruk
vv = zicht
sd = Zonneschijnduur
rr = neerslag

Weerstations in de omgeving